This is the latest recevied weather packets stored in our database for station/object EA3KZ-1. If no packets are shown the sender has not sent any weather packets the latest 10 day(s).
| Time | Temp. | Humidity | Pressure | Rain* | Wind** | Luminosity | Snow |
|---|---|---|---|---|---|---|---|
| 1787877369 | 25.56° C | 40% | 1010.1 hPa | 0 mm | - | - | - |
| 1787876767 | 25.56° C | 40% | 1009.9 hPa | 0 mm | - | - | - |
| 1787876164 | 25.56° C | 40% | 1009.7 hPa | 0 mm | - | - | - |
| 1787875561 | 25.56° C | 43% | 1010 hPa | 0 mm | - | - | - |
| 1787874959 | 25.56° C | 44% | 1010.1 hPa | 0 mm | - | - | - |
| 1787874356 | 25° C | 46% | 1010 hPa | 0 mm | - | - | - |
| 1787873754 | 25° C | 50% | 1010 hPa | 0 mm | - | - | - |
| 1787873151 | 25° C | 60% | 1010.6 hPa | 0 mm | - | - | - |
| 1787872548 | 24.44° C | 70% | 1010.8 hPa | 0 mm | - | - | - |
| 1787871946 | 24.44° C | 73% | 1010.9 hPa | 0 mm | - | - | - |
| 1787871343 | 24.44° C | 74% | 1011 hPa | 0 mm | - | - | - |
| 1787870741 | 25° C | 72% | 1011.1 hPa | 0 mm | - | - | - |
| 1787870138 | 25° C | 72% | 1011.2 hPa | 0 mm | - | - | - |
| 1787869536 | 25° C | 72% | 1011.2 hPa | 0 mm | - | - | - |
| 1787868933 | 25° C | 71% | 1010.4 hPa | 0 mm | - | - | - |
| 1787868330 | 25° C | 70% | 1010.3 hPa | 0 mm | - | - | - |
| 1787867728 | 25.56° C | 70% | 1010.1 hPa | 0 mm | - | - | - |
| 1787867125 | 25.56° C | 70% | 1009.6 hPa | 0 mm | - | - | - |
| 1787866522 | 25.56° C | 69% | 1010.1 hPa | 0 mm | - | - | - |
| 1787865920 | 25.56° C | 68% | 1009.6 hPa | 0 mm | - | - | - |
| 1787865317 | 25.56° C | 67% | 1010.4 hPa | 0 mm | - | - | - |
| 1787864715 | 25.56° C | 66% | 1010.3 hPa | 0 mm | - | - | - |
| 1787864172 | 25.56° C | 65% | 1010.1 hPa | 0 mm | - | - | - |
| 1787863570 | 25.56° C | 64% | 1009.9 hPa | 0 mm | - | - | - |
| 1787862967 | 25.56° C | 64% | 1009.6 hPa | 0 mm | - | - | - |
* Rain latest hour (hover to see other rain measurements)
** Current wind speed in m/s (hover to see current wind gust speed)